[[{"header":{"parameterUnit":"m.s-1","parameterCategory":1,"la1":30.2991,"la2":30.254,"lo1":-89.0895,"lo2":-89.0444,"dy":0.0017,"dx":0.0017,"nx":28,"ny":28,"refTime":"2024-05-28T09:00:00:Z","depth":0,"parameterNumber":2,"parameterNumberName":"U-component_of_WINDS"},"data":[0,0,0,0,0,0,0,0,0,0,0,0,0,0,0,0,0,0,0,0,0,0,0,0,0,0,0,0,0,0,0,0,0,0,0,0,0,0,0,0,0,0,0,0,0,0,0,0,0,0,0,0,0,0,0,0,0,0,0.2763,0.2763,0,0.2685,0.2684,0.2683,0.2575,0.2574,0.2572,0.257,0.2495,0.2495,0.2495,0,0,0,0,0,0,0,0,0,0,0,0,0,0.2823,0.2823,0.2763,0.2762,0.2761,0.2685,0.2684,0.2683,0.2576,0.2573,0.2571,0.2569,0.2495,0.2495,0.2495,0,0,0,0,0,0,0,0,0,0,0,0,0,0.2777,0.2823,0.2764,0.2699,0.2692,0.2685,0.2684,0.2683,0.2576,0.2573,0.2571,0.2568,0.2495,0.2495,0.2495,0.2547,0,0,0.2493,0.2493,0,0,0,0,0,0,0,0,0.2779,0.2775,0.2709,0.2703,0.2696,0.2637,0.2678,0.2638,0.2577,0.262,0.257,0.2567,0.2545,0.254,0.2532,0.2544,0.254,0.2493,0.2493,0.2493,0.2493,0,0,0,0,0,0,0,0.2783,0.2777,0.2733,0.2708,0.27,0.2674,0.2665,0.267,0.2599,0.2616,0.2608,0.26,0.2541,0.2533,0.2529,0.2539,0.2493,0.2493,0.2493,0.2492,0.2589,0.2592,0,0,0,0,0,0,0.2795,0.2781,0.2735,0.273,0.2731,0.2676,0.2665,0.2659,0.2599,0.2587,0.2603,0.2595,0.2535,0.253,0.2526,0.2583,0.2493,0.2492,0.2492,0.2586,0.259,0.2593,0,0,0,0,0,0,0.2797,0.2792,0.2738,0.2753,0.2744,0.2677,0.2672,0.2659,0.265,0.2588,0.2576,0.2607,0.2532,0.2527,0.2542,0.2579,0.2492,0.2492,0.2583,0.2587,0.2591,0.2699,0,0,0,0,0,0,0.2799,0.2793,0.2812,0.2754,0.2744,0.2755,0.2674,0.2659,0.2649,0.2639,0.2589,0.2578,0.253,0.2543,0.2542,0.2577,0.2491,0.2579,0.2585,0.259,0.2692,0.2706,0.2719,0,0,0,0,0,0.2802,0.2847,0.2814,0.2809,0.2766,0.2757,0.2751,0.2693,0.2653,0.2671,0.2631,0.258,0.2575,0.2546,0.2543,0.2579,0.2577,0.2583,0.259,0.2686,0.2703,0.2718,0,0,0,0,0,0,0.2913,0.2838,0.2801,0.2828,0.28,0.2739,0.2761,0.2714,0.2698,0.2689,0.2619,0.2608,0.2632,0.2607,0.2576,0.2626,0.2568,0.2574,0.2642,0.2659,0.2672,0.2678,0.2491,0,0,0,0,0,0.294,0.2938,0.2873,0.2904,0.2892,0.2829,0.2823,0.278,0.2748,0.2736,0.2697,0.267,0.2662,0.2659,0.2648,0.2687,0.2675,0.271,0.2724,0.2735,0.2742,0.276,0.2775,0.2614,0.2614,0.2614,0,0,0.2998,0.2957,0.296,0.2926,0.2898,0.2899,0.282,0.2824,0.2824,0.2738,0.2749,0.272,0.2684,0.2711,0.2721,0.2691,0.2783,0.2743,0.2753,0.2753,0.2768,0.2783,0.2797,0.2618,0.2617,0.2617,0,0,0.3103,0.3072,0.3093,0.3067,0.3025,0.2983,0.2988,0.2934,0.2911,0.292,0.2855,0.2855,0.2843,0.282,0.2807,0.2901,0.2853,0.2899,0.2971,0.2989,0.3002,0.3013,0.3047,0.306,0.2906,0.2906,0.2906,0,0.3181,0.3177,0.3111,0.3118,0.3105,0.3024,0.3046,0.3024,0.2983,0.2976,0.2942,0.2924,0.2894,0.2915,0.2937,0.2929,0.2934,0.2906,0.3005,0.3015,0.3025,0.3056,0.3069,0.2912,0.2911,0.2911,0.291,0,0.3275,0.3273,0.3296,0.3255,0.3244,0.3259,0.3196,0.3193,0.3151,0.3112,0.3123,0.3084,0.3064,0.3065,0.3025,0.308,0.3062,0.3018,0.2958,0.3047,0.3076,0.3087,0.292,0.2918,0.2917,0.2915,0,0,0.3451,0.337,0.338,0.336,0.3308,0.3306,0.3317,0.3295,0.3294,0.3268,0.3276,0.3266,0.3224,0.3209,0.3165,0.3181,0.3258,0.3134,0.3132,0.3159,0.3317,0.3352,0.3367,0.3225,0.3227,0.3229,0.332,0,0.3546,0.3559,0.3499,0.3528,0.3526,0.3448,0.3458,0.3427,0.3391,0.3385,0.3345,0.3339,0.3284,0.3274,0.3286,0.3246,0.3289,0.3239,0.3234,0.3234,0.3246,0.3381,0.3419,0.3507,0.3331,0.3332,0.3334,0,0.3661,0.3638,0.3666,0.361,0.3607,0.3617,0.3591,0.3586,0.355,0.3522,0.3504,0.3452,0.346,0.3402,0.3412,0.3379,0.3373,0.3353,0.3355,0.3354,0.3291,0.3385,0.3533,0.3547,0.3351,0.3349,0.3348,0,0.3787,0.3763,0.3777,0.3762,0.3697,0.3706,0.368,0.364,0.363,0.3608,0.3601,0.3581,0.3571,0.3557,0.3501,0.3464,0.3518,0.3455,0.3497,0.3498,0.3513,0.3513,0.3664,0.3508,0.3507,0.3507,0.3507,0,0.3901,0.3922,0.3832,0.3841,0.3862,0.3792,0.3815,0.3781,0.3746,0.3748,0.3679,0.3683,0.3608,0.3603,0.356,0.3575,0.3571,0.355,0.3538,0.3557,0.356,0.3553,0.3546,0.351,0.351,0.3509,0.3508,0,0.4047,0.3987,0.3997,0.3934,0.3918,0.3937,0.3883,0.3889,0.3847,0.385,0.3847,0.3782,0.3773,0.3715,0.3693,0.3664,0.3695,0.3671,0.3707,0.37,0.3745,0.3742,0.3898,0.3915,0.3747,0.3749,0.375,0,0.4124,0.4138,0.4075,0.407,0.4046,0.4039,0.4028,0.3959,0.3951,0.3909,0.3921,0.3905,0.3889,0.3878,0.383,0.3813,0.3788,0.3844,0.3785,0.3803,0.379,0.379,0.3792,0.3857,0.3859,0.3861,0.3863,0,0.4268,0.4237,0.4223,0.4198,0.4186,0.4163,0.4137,0.4137,0.4061,0.4055,0.4043,0.4031,0.4007,0.3993,0.3966,0.3941,0.389,0.3881,0.3889,0.3909,0.393,0.392,0.3743,0.3878,0.3877,0.3875,0.3875,0.3874,0.4383,0.4391,0.4347,0.4333,0.4305,0.4282,0.4284,0.4241,0.4229,0.4203,0.4163,0.4157,0.4119,0.4079,0.4057,0.4052,0.4022,0.4035,0.4038,0.4043,0.4053,0.3929,0.4047,0.4046,0.4046,0.4045,0.4045,0,0.4524,0.4491,0.4479,0.4442,0.4431,0.4381,0.4348,0.4343,0.4338,0.4306,0.429,0.4277,0.4262,0.4212,0.4192,0.4198,0.4174,0.4196,0.4195,0.419,0.408,0.4074,0.4215,0.4215,0.4215,0.4215,0.4215,0.4215,0.4596,0.4607,0.4571,0.4567,0.4535,0.4526,0.4512,0.449,0.4464,0.4451,0.4438,0.4404,0.4365,0.4341,0.4326,0.4312,0.4308,0.4338,0.4316,0.4214,0.4198,0.4183,0.4177,0.4337,0.4337,0.4427,0.4428,0.4428]},{"header":{"parameterUnit":"m.s-1","parameterCategory":1,"la1":30.2991,"la2":30.254,"lo1":-89.0895,"lo2":-89.0444,"dy":0.0017,"dx":0.0017,"nx":28,"ny":28,"refTime":"2024-05-28T09:00:00:Z","depth":0,"parameterNumber":3,"parameterNumberName":"V-component_of_WINDS"},"data":[0,0,0,0,0,0,0,0,0,0,0,0,0,0,0,0,0,0,0,0,0,0,0,0,0,0,0,0,0,0,0,0,0,0,0,0,0,0,0,0,0,0,0,0,0,0,0,0,0,0,0,0,0,0,0,0,0,0,2.7705,2.7705,0,2.7751,2.7751,2.7752,2.774,2.7739,2.7738,2.7737,2.7779,2.7781,2.7783,0,0,0,0,0,0,0,0,0,0,0,0,0,2.7602,2.7604,2.7705,2.7705,2.7706,2.7751,2.7751,2.7752,2.774,2.7739,2.7738,2.7737,2.7778,2.778,2.7783,0,0,0,0,0,0,0,0,0,0,0,0,0,2.7647,2.7604,2.7705,2.7706,2.7706,2.775,2.7751,2.7752,2.774,2.7739,2.7738,2.7736,2.7777,2.778,2.7783,2.7828,0,0,2.7792,2.7793,0,0,0,0,0,0,0,0,2.7644,2.7651,2.7705,2.7706,2.7706,2.7738,2.773,2.7777,2.7741,2.7727,2.7737,2.7736,2.7766,2.777,2.7781,2.783,2.7831,2.7792,2.7794,2.7795,2.7796,0,0,0,0,0,0,0,2.7641,2.7649,2.7723,2.7706,2.7707,2.7702,2.7707,2.7739,2.7753,2.7728,2.7727,2.7733,2.7766,2.7778,2.7782,2.7832,2.7792,2.7795,2.7796,2.7798,2.7919,2.792,0,0,0,0,0,0,2.7638,2.7646,2.7721,2.7724,2.7672,2.7705,2.771,2.7729,2.7753,2.7755,2.7734,2.7733,2.7774,2.7779,2.7783,2.7837,2.7795,2.7798,2.7799,2.7918,2.7919,2.7921,0,0,0,0,0,0,2.7636,2.7645,2.7719,2.7685,2.7694,2.7708,2.7729,2.7731,2.7743,2.7758,2.776,2.7745,2.7773,2.7779,2.7817,2.7838,2.7799,2.7802,2.7916,2.7918,2.792,2.7945,0,0,0,0,0,0,2.7633,2.7644,2.7663,2.7686,2.7696,2.7754,2.7731,2.7733,2.7749,2.7747,2.7768,2.777,2.7773,2.7813,2.782,2.7842,2.7804,2.7914,2.7917,2.792,2.7942,2.7948,2.7952,0,0,0,0,0,2.763,2.7666,2.7664,2.7673,2.7719,2.7755,2.7761,2.7765,2.7751,2.7768,2.7778,2.7769,2.7835,2.7817,2.7825,2.7848,2.7913,2.7916,2.7919,2.794,2.7947,2.7952,0,0,0,0,0,0,2.7643,2.7669,2.7667,2.7712,2.7732,2.7753,2.7775,2.7772,2.7794,2.7791,2.7793,2.7798,2.7837,2.7846,2.7825,2.7892,2.7872,2.7877,2.7884,2.7891,2.7896,2.7892,2.7806,0,0,0,0,0,2.7652,2.7681,2.7701,2.774,2.775,2.7761,2.7777,2.7778,2.7798,2.7805,2.7818,2.7835,2.786,2.7876,2.79,2.7944,2.7948,2.7963,2.7968,2.7973,2.7977,2.8,2.8007,2.7932,2.7932,2.7932,0,0,2.767,2.7688,2.7705,2.7743,2.7758,2.7786,2.7768,2.7798,2.7819,2.7809,2.7846,2.7856,2.7876,2.7917,2.7936,2.7926,2.7998,2.7977,2.798,2.7982,2.8004,2.8012,2.8018,2.7934,2.7934,2.7934,0,0,2.7716,2.7733,2.7767,2.7783,2.7808,2.7815,2.7823,2.7846,2.7852,2.789,2.7883,2.7907,2.7949,2.7964,2.7977,2.803,2.8023,2.8037,2.8064,2.8087,2.8093,2.8098,2.8116,2.8123,2.8042,2.8042,2.8042,0,2.7734,2.7778,2.7784,2.7816,2.7832,2.7828,2.7861,2.7876,2.7906,2.7916,2.7905,2.7959,2.7972,2.8017,2.803,2.8041,2.8049,2.8035,2.8092,2.8097,2.8102,2.8119,2.8126,2.8043,2.8043,2.8043,2.8043,0,2.7799,2.783,2.7854,2.7886,2.7905,2.7937,2.7946,2.7965,2.7965,2.7973,2.8011,2.8027,2.8053,2.8064,2.8063,2.8108,2.8102,2.8091,2.8071,2.8111,2.8127,2.8134,2.8046,2.8045,2.8045,2.8044,0,0,2.7854,2.789,2.7899,2.7913,2.794,2.7963,2.7995,2.8023,2.8038,2.8059,2.8085,2.8122,2.8113,2.8127,2.8128,2.8149,2.8189,2.8136,2.8136,2.8145,2.8239,2.8247,2.8254,2.8185,2.8187,2.8188,2.8237,0,2.7903,2.7961,2.7968,2.8019,2.8046,2.8043,2.807,2.8089,2.8097,2.8121,2.813,2.8156,2.8142,2.8151,2.8171,2.818,2.8208,2.8177,2.8208,2.8209,2.8202,2.8263,2.8271,2.8317,2.8244,2.8245,2.8246,0,2.7967,2.7992,2.8047,2.807,2.8082,2.8107,2.8133,2.8157,2.8177,2.8182,2.8199,2.8198,2.8229,2.8208,2.8251,2.8229,2.8242,2.8249,2.8251,2.8253,2.8229,2.8266,2.8332,2.8338,2.8256,2.8255,2.8255,0,2.8001,2.8048,2.8087,2.81,2.8128,2.8146,2.8158,2.8178,2.8195,2.8217,2.8228,2.8253,2.8266,2.8285,2.829,2.8275,2.8333,2.8312,2.8336,2.8336,2.8347,2.8347,2.8415,2.8357,2.8357,2.8357,2.8357,0,2.8054,2.8087,2.8103,2.8127,2.8164,2.8171,2.8206,2.8217,2.8235,2.826,2.8258,2.828,2.8286,2.831,2.8314,2.8348,2.8354,2.8358,2.8358,2.8358,2.8357,2.8365,2.8362,2.8359,2.8359,2.8358,2.8358,0,2.8098,2.811,2.8152,2.8177,2.8184,2.821,2.823,2.8252,2.8261,2.8292,2.83,2.8313,2.834,2.8348,2.838,2.8383,2.8423,2.8421,2.8417,2.8416,2.844,2.8437,2.8516,2.8526,2.8462,2.8463,2.8463,0,2.813,2.8156,2.8185,2.8202,2.8216,2.8244,2.8261,2.8269,2.8287,2.8313,2.8332,2.836,2.8382,2.8427,2.8438,2.8463,2.846,2.8486,2.8464,2.8463,2.846,2.8458,2.8461,2.849,2.8491,2.8491,2.8492,0,2.8187,2.8192,2.8219,2.8248,2.8269,2.8292,2.8313,2.8327,2.8338,2.8358,2.8388,2.8405,2.844,2.8467,2.8492,2.8503,2.8499,2.8499,2.8506,2.8505,2.8501,2.8503,2.8428,2.8497,2.8496,2.8496,2.8496,2.8495,2.8225,2.8248,2.8272,2.8302,2.832,2.834,2.8363,2.8375,2.8401,2.843,2.8433,2.8465,2.8484,2.8519,2.8531,2.8555,2.8547,2.8557,2.8559,2.8561,2.8563,2.8499,2.8559,2.8559,2.8559,2.8559,2.8559,0,2.8281,2.8297,2.8324,2.8356,2.8379,2.8376,2.84,2.8419,2.8447,2.8467,2.849,2.8524,2.8551,2.8565,2.8591,2.8607,2.8606,2.8614,2.8612,2.8615,2.8569,2.856,2.8615,2.8615,2.8615,2.8614,2.8614,2.8614,2.8313,2.8351,2.836,2.8407,2.8422,2.8454,2.8468,2.8487,2.8503,2.8541,2.8564,2.8574,2.8592,2.8619,2.8643,2.8647,2.8656,2.8665,2.8667,2.8624,2.8618,2.8612,2.8604,2.8667,2.8667,2.8711,2.8711,2.8711]}]]